Wetterdaten: Mittwoch, 12.11.2014
Datum Zeit Temp. A. Feuchte A. Luftdruck Regen Wind Richtung Richtung Sonnenschein ET UV Solar Taupunkt Windchill Windben Empfang
12.11.2014 00:00 6,5 C 85 % 1004,7 hPa 0,0 l/m 0,0 km/h (0 Bft) S 173 0 min 0,000 mm 0,0 UV-I 0 W/m 4,2 C 6,5 C 0,0 km/h (0 Bft) 0,00 %
12.11.2014 00:15 7,0 C 85 % 1004,6 hPa 0,0 l/m 0,0 km/h (0 Bft) S-SO 159 0 min 0,000 mm 0,0 UV-I 0 W/m 4,7 C 7,0 C 0,0 km/h (0 Bft) 0,00 %
12.11.2014 00:30 6,7 C 86 % 1004,3 hPa 0,0 l/m 0,0 km/h (0 Bft) S-SW 199 0 min 0,000 mm 0,0 UV-I 0 W/m 4,5 C 6,7 C 0,0 km/h (0 Bft) 0,00 %
12.11.2014 00:45 6,4 C 86 % 1004,3 hPa 0,0 l/m 0,0 km/h (0 Bft) S-SW 198 0 min 0,000 mm 0,0 UV-I 0 W/m 4,2 C 6,4 C 0,0 km/h (0 Bft) 0,00 %
12.11.2014 01:00 6,5 C 85 % 1004,4 hPa 0,0 l/m 0,0 km/h (0 Bft) S-SW 198 0 min 0,000 mm 0,0 UV-I 0 W/m 4,2 C 6,5 C 0,0 km/h (0 Bft) 0,00 %
12.11.2014 01:15 6,5 C 86 % 1004,0 hPa 0,0 l/m 0,0 km/h (0 Bft) S-SW 198 0 min 0,000 mm 0,0 UV-I 0 W/m 4,3 C 6,5 C 0,0 km/h (0 Bft) 0,00 %
12.11.2014 01:30 6,5 C 86 % 1004,0 hPa 0,0 l/m 0,0 km/h (0 Bft) SO 139 0 min 0,000 mm 0,0 UV-I 0 W/m 4,3 C 6,5 C 0,0 km/h (0 Bft) 0,00 %
12.11.2014 01:45 6,9 C 86 % 1003,6 hPa 0,0 l/m 0,0 km/h (0 Bft) S 191 0 min 0,000 mm 0,0 UV-I 0 W/m 4,7 C 6,9 C 0,0 km/h (0 Bft) 0,00 %
12.11.2014 02:00 6,4 C 85 % 1003,7 hPa 0,0 l/m 0,0 km/h (0 Bft) S 191 0 min 0,000 mm 0,0 UV-I 0 W/m 4,1 C 6,4 C 0,0 km/h (0 Bft) 0,00 %
12.11.2014 02:15 6,2 C 85 % 1003,4 hPa 0,0 l/m 0,0 km/h (0 Bft) S 175 0 min 0,000 mm 0,0 UV-I 0 W/m 3,9 C 6,2 C 0,0 km/h (0 Bft) 0,00 %
12.11.2014 02:30 6,4 C 85 % 1003,3 hPa 0,0 l/m 0,0 km/h (0 Bft) S 179 0 min 0,000 mm 0,0 UV-I 0 W/m 4,1 C 6,4 C 0,0 km/h (0 Bft) 0,00 %
12.11.2014 02:45 6,6 C 85 % 1003,1 hPa 0,0 l/m 0,0 km/h (0 Bft) S 173 0 min 0,000 mm 0,0 UV-I 0 W/m 4,3 C 6,6 C 0,0 km/h (0 Bft) 0,00 %
12.11.2014 03:00 6,9 C 85 % 1002,8 hPa 0,0 l/m 0,0 km/h (0 Bft) S 185 0 min 0,000 mm 0,0 UV-I 0 W/m 4,6 C 6,9 C 0,0 km/h (0 Bft) 0,00 %
12.11.2014 03:15 6,9 C 85 % 1002,6 hPa 0,0 l/m 0,0 km/h (0 Bft) S-SO 149 0 min 0,000 mm 0,0 UV-I 0 W/m 4,6 C 6,9 C 0,0 km/h (0 Bft) 0,00 %
12.11.2014 03:30 6,8 C 85 % 1002,4 hPa 0,3 l/m 0,0 km/h (0 Bft) N-NW 341 0 min 0,000 mm 0,0 UV-I 0 W/m 4,5 C 6,8 C 0,0 km/h (0 Bft) 0,00 %
12.11.2014 03:45 6,9 C 85 % 1002,3 hPa 0,0 l/m 0,0 km/h (0 Bft) S 183 0 min 0,000 mm 0,0 UV-I 0 W/m 4,6 C 6,9 C 0,0 km/h (0 Bft) 0,00 %
12.11.2014 04:00 7,0 C 85 % 1002,1 hPa 0,0 l/m 0,0 km/h (0 Bft) SO 130 0 min 0,000 mm 0,0 UV-I 0 W/m 4,7 C 7,0 C 0,0 km/h (0 Bft) 0,00 %
12.11.2014 04:15 7,0 C 85 % 1002,1 hPa 0,0 l/m 0,0 km/h (0 Bft) W-SW 253 0 min 0,000 mm 0,0 UV-I 0 W/m 4,7 C 7,0 C 0,0 km/h (0 Bft) 0,00 %
12.11.2014 04:30 6,9 C 85 % 1002,1 hPa 0,0 l/m 0,0 km/h (0 Bft) S 177 0 min 0,000 mm 0,0 UV-I 0 W/m 4,6 C 6,9 C 0,0 km/h (0 Bft) 0,00 %
12.11.2014 04:45 6,6 C 86 % 1002,3 hPa 0,0 l/m 0,0 km/h (0 Bft) SW 225 0 min 0,000 mm 0,0 UV-I 0 W/m 4,4 C 6,6 C 0,0 km/h (0 Bft) 0,00 %
12.11.2014 05:00 6,3 C 86 % 1002,3 hPa 0,0 l/m 0,0 km/h (0 Bft) S-SW 203 0 min 0,000 mm 0,0 UV-I 0 W/m 4,1 C 6,3 C 0,0 km/h (0 Bft) 0,00 %
12.11.2014 05:15 6,2 C 85 % 1002,3 hPa 0,0 l/m 0,0 km/h (0 Bft) O-SO 123 0 min 0,000 mm 0,0 UV-I 0 W/m 3,9 C 6,2 C 0,0 km/h (0 Bft) 0,00 %
12.11.2014 05:30 5,9 C 85 % 1002,4 hPa 0,0 l/m 0,0 km/h (0 Bft) W-SW 252 0 min 0,000 mm 0,0 UV-I 0 W/m 3,6 C 5,9 C 0,0 km/h (0 Bft) 0,00 %
12.11.2014 05:45 5,6 C 86 % 1002,1 hPa 0,0 l/m 0,0 km/h (0 Bft) S 183 0 min 0,000 mm 0,0 UV-I 0 W/m 3,4 C 5,6 C 0,0 km/h (0 Bft) 0,00 %
12.11.2014 06:00 5,2 C 86 % 1002,2 hPa 0,0 l/m 0,0 km/h (0 Bft) S-SO 162 0 min 0,000 mm 0,0 UV-I 0 W/m 3,1 C 5,2 C 0,0 km/h (0 Bft) 0,00 %
12.11.2014 06:15 5,0 C 86 % 1002,4 hPa 0,0 l/m 0,0 km/h (0 Bft) W-SW 254 0 min 0,000 mm 0,0 UV-I 0 W/m 2,9 C 5,0 C 0,0 km/h (0 Bft) 0,00 %
12.11.2014 06:30 4,8 C 86 % 1002,1 hPa 0,0 l/m 0,0 km/h (0 Bft) SW 215 0 min 0,000 mm 0,0 UV-I 0 W/m 2,7 C 4,8 C 0,0 km/h (0 Bft) 0,00 %
12.11.2014 06:45 4,7 C 86 % 1002,2 hPa 0,0 l/m 0,0 km/h (0 Bft) S-SW 210 0 min 0,000 mm 0,0 UV-I 0 W/m 2,6 C 4,7 C 0,0 km/h (0 Bft) 0,00 %
12.11.2014 07:00 4,6 C 86 % 1002,2 hPa 0,0 l/m 0,0 km/h (0 Bft) SW 221 0 min 0,000 mm 0,0 UV-I 0 W/m 2,5 C 4,6 C 0,0 km/h (0 Bft) 0,00 %
12.11.2014 07:15 4,4 C 86 % 1002,6 hPa 0,0 l/m 0,0 km/h (0 Bft) SW 230 0 min 0,000 mm 0,0 UV-I 0 W/m 2,3 C 4,4 C 0,0 km/h (0 Bft) 0,00 %
12.11.2014 07:30 4,4 C 86 % 1002,5 hPa 0,0 l/m 0,0 km/h (0 Bft) S 181 0 min 0,000 mm 0,0 UV-I 0 W/m 2,3 C 4,4 C 0,0 km/h (0 Bft) 0,00 %
12.11.2014 07:45 4,7 C 86 % 1002,6 hPa 0,0 l/m 0,0 km/h (0 Bft) S-SW 195 0 min 0,000 mm 1,0 UV-I 11 W/m 2,6 C 4,7 C 0,0 km/h (0 Bft) 0,00 %
12.11.2014 08:00 5,2 C 85 % 1002,3 hPa 0,0 l/m 0,0 km/h (0 Bft) S-SW 195 0 min 0,000 mm 1,0 UV-I 23 W/m 2,9 C 5,2 C 0,0 km/h (0 Bft) 0,00 %
12.11.2014 08:15 5,6 C 85 % 1002,3 hPa 0,0 l/m 0,0 km/h (0 Bft) SW 219 0 min 0,000 mm 1,0 UV-I 34 W/m 3,3 C 5,6 C 0,0 km/h (0 Bft) 0,00 %
12.11.2014 08:30 6,0 C 85 % 1002,3 hPa 0,0 l/m 0,0 km/h (0 Bft) S-SW 213 0 min 0,000 mm 1,0 UV-I 35 W/m 3,7 C 6,0 C 0,0 km/h (0 Bft) 0,00 %
12.11.2014 08:45 6,8 C 84 % 1002,2 hPa 0,0 l/m 0,0 km/h (0 Bft) SW 222 0 min 0,000 mm 1,0 UV-I 36 W/m 4,3 C 6,8 C 0,0 km/h (0 Bft) 0,00 %
12.11.2014 09:00 7,7 C 84 % 1002,1 hPa 0,0 l/m 0,0 km/h (0 Bft) SW 216 0 min 0,000 mm 1,0 UV-I 56 W/m 5,2 C 7,7 C 0,0 km/h (0 Bft) 0,00 %
12.11.2014 09:15 8,7 C 84 % 1002,1 hPa 0,0 l/m 0,0 km/h (0 Bft) S-SW 213 0 min 0,000 mm 1,0 UV-I 55 W/m 6,2 C 8,7 C 0,0 km/h (0 Bft) 0,00 %
12.11.2014 09:30 9,5 C 83 % 1001,7 hPa 0,0 l/m 0,0 km/h (0 Bft) S 187 0 min 0,000 mm 1,0 UV-I 77 W/m 6,8 C 9,5 C 0,0 km/h (0 Bft) 0,00 %
12.11.2014 09:45 10,2 C 79 % 1001,5 hPa 0,0 l/m 0,0 km/h (0 Bft) S 183 0 min 0,000 mm 1,0 UV-I 88 W/m 6,7 C 10,2 C 0,0 km/h (0 Bft) 0,00 %
12.11.2014 10:00 10,6 C 79 % 1001,4 hPa 0,0 l/m 0,0 km/h (0 Bft) N 355 0 min 0,000 mm 1,0 UV-I 66 W/m 7,1 C 10,6 C 0,0 km/h (0 Bft) 0,00 %
12.11.2014 10:15 11,0 C 77 % 1001,3 hPa 0,0 l/m 0,0 km/h (0 Bft) W-SW 251 0 min 0,000 mm 2,0 UV-I 77 W/m 7,1 C 11,0 C 0,0 km/h (0 Bft) 0,00 %
12.11.2014 10:30 11,7 C 74 % 1001,2 hPa 0,0 l/m 2,9 km/h (1 Bft) O-NO 71 0 min 0,000 mm 2,0 UV-I 111 W/m 7,2 C 11,7 C 4,0 km/h (1 Bft) 0,00 %
12.11.2014 10:45 12,0 C 72 % 1001,0 hPa 0,0 l/m 10,8 km/h (2 Bft) O 92 0 min 0,000 mm 2,0 UV-I 113 W/m 7,1 C 9,4 C 15,8 km/h (3 Bft) 0,00 %
12.11.2014 11:00 12,5 C 72 % 1000,9 hPa 0,0 l/m 0,7 km/h (0 Bft) O-SO 115 0 min 0,000 mm 2,0 UV-I 124 W/m 7,6 C 12,5 C 4,0 km/h (1 Bft) 0,00 %
12.11.2014 11:15 13,2 C 69 % 1000,7 hPa 0,0 l/m 0,0 km/h (0 Bft) S 176 0 min 0,000 mm 2,0 UV-I 122 W/m 7,6 C 13,2 C 0,0 km/h (0 Bft) 0,00 %
12.11.2014 11:30 13,6 C 67 % 1000,5 hPa 0,0 l/m 2,2 km/h (1 Bft) O 90 0 min 0,000 mm 2,0 UV-I 166 W/m 7,6 C 13,6 C 4,0 km/h (1 Bft) 0,00 %
12.11.2014 11:45 14,0 C 67 % 1000,3 hPa 0,0 l/m 0,0 km/h (0 Bft) O-SO 108 0 min 0,000 mm 2,0 UV-I 123 W/m 8,0 C 14,0 C 0,0 km/h (0 Bft) 0,00 %
12.11.2014 12:00 14,4 C 65 % 1000,1 hPa 0,0 l/m 0,7 km/h (0 Bft) SO 141 0 min 0,000 mm 2,0 UV-I 111 W/m 7,9 C 14,4 C 4,0 km/h (1 Bft) 0,00 %
12.11.2014 12:15 14,7 C 64 % 999,8 hPa 0,0 l/m 0,4 km/h (0 Bft) NO 43 0 min 0,000 mm 2,0 UV-I 134 W/m 8,0 C 14,7 C 4,0 km/h (1 Bft) 0,00 %
12.11.2014 12:30 15,1 C 63 % 999,7 hPa 0,0 l/m 0,4 km/h (0 Bft) O-NO 61 0 min 0,000 mm 2,0 UV-I 123 W/m 8,1 C 15,1 C 4,0 km/h (1 Bft) 0,00 %
12.11.2014 12:45 15,4 C 61 % 999,5 hPa 0,0 l/m 4,0 km/h (1 Bft) O-SO 119 0 min 0,000 mm 2,0 UV-I 90 W/m 7,9 C 15,4 C 4,0 km/h (1 Bft) 0,00 %
12.11.2014 13:00 15,9 C 62 % 999,3 hPa 0,0 l/m 0,0 km/h (0 Bft) SO 125 0 min 0,000 mm 1,0 UV-I 99 W/m 8,6 C 15,9 C 0,0 km/h (0 Bft) 0,00 %
12.11.2014 13:15 16,1 C 60 % 999,5 hPa 0,0 l/m 1,4 km/h (1 Bft) O-SO 116 0 min 0,000 mm 1,0 UV-I 78 W/m 8,3 C 16,1 C 4,0 km/h (1 Bft) 0,00 %
12.11.2014 13:30 16,3 C 59 % 999,3 hPa 0,0 l/m 0,4 km/h (0 Bft) SO 127 0 min 0,000 mm 1,0 UV-I 88 W/m 8,3 C 16,3 C 4,0 km/h (1 Bft) 0,00 %
12.11.2014 13:45 16,5 C 59 % 999,2 hPa 0,0 l/m 1,8 km/h (1 Bft) O-SO 103 0 min 0,000 mm 1,0 UV-I 45 W/m 8,5 C 16,5 C 4,0 km/h (1 Bft) 0,00 %
12.11.2014 14:00 16,6 C 58 % 999,0 hPa 0,0 l/m 0,0 km/h (0 Bft) S 174 0 min 0,000 mm 1,0 UV-I 67 W/m 8,3 C 16,6 C 0,0 km/h (0 Bft) 0,00 %
12.11.2014 14:15 16,7 C 59 % 999,0 hPa 0,0 l/m 0,0 km/h (0 Bft) O-NO 60 0 min 0,000 mm 1,0 UV-I 34 W/m 8,6 C 16,7 C 0,0 km/h (0 Bft) 0,00 %
12.11.2014 14:30 16,6 C 59 % 999,0 hPa 0,0 l/m 4,0 km/h (1 Bft) O-SO 107 0 min 0,000 mm 1,0 UV-I 33 W/m 8,6 C 16,6 C 7,9 km/h (2 Bft) 0,00 %
12.11.2014 14:45 16,6 C 60 % 999,0 hPa 0,0 l/m 0,0 km/h (0 Bft) O 91 0 min 0,000 mm 1,0 UV-I 23 W/m 8,8 C 16,6 C 0,0 km/h (0 Bft) 0,00 %
12.11.2014 15:00 16,6 C 59 % 999,1 hPa 0,0 l/m 0,0 km/h (0 Bft) O-NO 73 0 min 0,000 mm 1,0 UV-I 44 W/m 8,6 C 16,6 C 0,0 km/h (0 Bft) 0,00 %
12.11.2014 15:15 16,2 C 62 % 999,2 hPa 0,0 l/m 0,0 km/h (0 Bft) SO 142 0 min 0,000 mm 1,0 UV-I 23 W/m 8,9 C 16,2 C 0,0 km/h (0 Bft) 0,00 %
12.11.2014 15:30 15,9 C 61 % 999,2 hPa 0,0 l/m 0,0 km/h (0 Bft) S-SO 150 0 min 0,000 mm 1,0 UV-I 33 W/m 8,4 C 15,9 C 0,0 km/h (0 Bft) 0,00 %
12.11.2014 15:45 15,7 C 62 % 999,4 hPa 0,0 l/m 0,0 km/h (0 Bft) S-SO 150 0 min 0,000 mm 0,0 UV-I 22 W/m 8,4 C 15,7 C 0,0 km/h (0 Bft) 0,00 %
12.11.2014 16:00 15,2 C 65 % 999,3 hPa 0,0 l/m 0,0 km/h (0 Bft) S-SO 151 0 min 0,000 mm 0,0 UV-I 1 W/m 8,7 C 15,2 C 0,0 km/h (0 Bft) 0,00 %
12.11.2014 16:15 14,3 C 72 % 999,9 hPa 0,0 l/m 0,0 km/h (0 Bft) S-SO 152 0 min 0,000 mm 0,0 UV-I 0 W/m 9,3 C 14,3 C 0,0 km/h (0 Bft) 0,00 %
12.11.2014 16:30 13,8 C 71 % 999,9 hPa 0,0 l/m 0,0 km/h (0 Bft) S-SO 166 0 min 0,000 mm 0,0 UV-I 0 W/m 8,6 C 13,8 C 0,0 km/h (0 Bft) 0,00 %
12.11.2014 16:45 13,3 C 73 % 1000,1 hPa 0,0 l/m 0,0 km/h (0 Bft) S 177 0 min 0,000 mm 0,0 UV-I 0 W/m 8,6 C 13,3 C 0,0 km/h (0 Bft) 0,00 %
12.11.2014 17:00 12,5 C 77 % 1000,2 hPa 0,0 l/m 0,0 km/h (0 Bft) S 177 0 min 0,000 mm 0,0 UV-I 0 W/m 8,6 C 12,5 C 0,0 km/h (0 Bft) 0,00 %
12.11.2014 17:15 11,8 C 80 % 1000,7 hPa 0,0 l/m 0,0 km/h (0 Bft) S 177 0 min 0,000 mm 0,0 UV-I 0 W/m 8,5 C 11,8 C 0,0 km/h (0 Bft) 0,00 %
12.11.2014 17:30 11,4 C 80 % 1000,6 hPa 0,0 l/m 0,0 km/h (0 Bft) S 177 0 min 0,000 mm 0,0 UV-I 0 W/m 8,1 C 11,4 C 0,0 km/h (0 Bft) 0,00 %
12.11.2014 17:45 11,3 C 79 % 1000,6 hPa 0,0 l/m 0,0 km/h (0 Bft) S 177 0 min 0,000 mm 0,0 UV-I 0 W/m 7,8 C 11,3 C 0,0 km/h (0 Bft) 0,00 %
12.11.2014 18:00 11,1 C 80 % 1000,8 hPa 0,0 l/m 0,0 km/h (0 Bft) S 177 0 min 0,000 mm 0,0 UV-I 0 W/m 7,8 C 11,1 C 0,0 km/h (0 Bft) 0,00 %
12.11.2014 18:15 10,8 C 81 % 1000,8 hPa 0,0 l/m 0,0 km/h (0 Bft) S 177 0 min 0,000 mm 0,0 UV-I 0 W/m 7,7 C 10,8 C 0,0 km/h (0 Bft) 0,00 %
12.11.2014 18:30 10,5 C 82 % 1001,0 hPa 0,0 l/m 0,0 km/h (0 Bft) S 178 0 min 0,000 mm 0,0 UV-I 0 W/m 7,6 C 10,5 C 0,0 km/h (0 Bft) 0,00 %
12.11.2014 18:45 10,1 C 82 % 1001,3 hPa 0,0 l/m 0,0 km/h (0 Bft) S-SW 193 0 min 0,000 mm 0,0 UV-I 0 W/m 7,2 C 10,1 C 0,0 km/h (0 Bft) 0,00 %
12.11.2014 19:00 10,4 C 82 % 1001,3 hPa 0,0 l/m 0,0 km/h (0 Bft) S-SW 197 0 min 0,000 mm 0,0 UV-I 0 W/m 7,5 C 10,4 C 0,0 km/h (0 Bft) 0,00 %
12.11.2014 19:15 10,3 C 84 % 1001,4 hPa 0,0 l/m 0,0 km/h (0 Bft) S-SW 195 0 min 0,000 mm 0,0 UV-I 0 W/m 7,7 C 10,3 C 0,0 km/h (0 Bft) 0,00 %
12.11.2014 19:30 9,9 C 84 % 1001,4 hPa 0,0 l/m 0,0 km/h (0 Bft) SW 216 0 min 0,000 mm 0,0 UV-I 0 W/m 7,3 C 9,9 C 0,0 km/h (0 Bft) 0,00 %
12.11.2014 19:45 9,9 C 83 % 1001,6 hPa 0,0 l/m 0,0 km/h (0 Bft) SW 215 0 min 0,000 mm 0,0 UV-I 0 W/m 7,2 C 9,9 C 0,0 km/h (0 Bft) 0,00 %
12.11.2014 20:00 9,4 C 84 % 1001,8 hPa 0,0 l/m 0,0 km/h (0 Bft) SW 214 0 min 0,000 mm 0,0 UV-I 0 W/m 6,8 C 9,4 C 0,0 km/h (0 Bft) 0,00 %
12.11.2014 20:15 9,1 C 84 % 1001,9 hPa 0,0 l/m 0,0 km/h (0 Bft) SW 221 0 min 0,000 mm 0,0 UV-I 0 W/m 6,5 C 9,1 C 0,0 km/h (0 Bft) 0,00 %
12.11.2014 20:30 9,0 C 85 % 1002,1 hPa 0,0 l/m 0,0 km/h (0 Bft) SW 221 0 min 0,000 mm 0,0 UV-I 0 W/m 6,6 C 9,0 C 0,0 km/h (0 Bft) 0,00 %
12.11.2014 20:45 8,9 C 84 % 1002,3 hPa 0,0 l/m 0,0 km/h (0 Bft) W-SW 256 0 min 0,000 mm 0,0 UV-I 0 W/m 6,3 C 8,9 C 0,0 km/h (0 Bft) 0,00 %
12.11.2014 21:00 8,3 C 85 % 1002,8 hPa 0,0 l/m 0,0 km/h (0 Bft) S-SW 203 0 min 0,000 mm 0,0 UV-I 0 W/m 5,9 C 8,3 C 0,0 km/h (0 Bft) 0,00 %
12.11.2014 21:15 8,8 C 84 % 1002,8 hPa 0,0 l/m 0,0 km/h (0 Bft) W-SW 256 0 min 0,000 mm 0,0 UV-I 0 W/m 6,2 C 8,8 C 0,0 km/h (0 Bft) 0,00 %
12.11.2014 21:30 8,7 C 84 % 1002,7 hPa 0,0 l/m 0,0 km/h (0 Bft) W-SW 255 0 min 0,000 mm 0,0 UV-I 0 W/m 6,2 C 8,7 C 0,0 km/h (0 Bft) 0,00 %
12.11.2014 21:45 8,5 C 85 % 1003,3 hPa 0,0 l/m 0,0 km/h (0 Bft) S 178 0 min 0,000 mm 0,0 UV-I 0 W/m 6,1 C 8,5 C 0,0 km/h (0 Bft) 0,00 %
12.11.2014 22:00 8,1 C 85 % 1003,6 hPa 0,0 l/m 0,0 km/h (0 Bft) SO 129 0 min 0,000 mm 0,0 UV-I 0 W/m 5,7 C 8,1 C 0,0 km/h (0 Bft) 0,00 %
12.11.2014 22:15 8,0 C 85 % 1003,8 hPa 0,0 l/m 0,0 km/h (0 Bft) SW 216 0 min 0,000 mm 0,0 UV-I 0 W/m 5,6 C 8,0 C 0,0 km/h (0 Bft) 0,00 %
12.11.2014 22:30 8,3 C 84 % 1004,0 hPa 0,0 l/m 1,4 km/h (1 Bft) W-SW 255 0 min 0,000 mm 0,0 UV-I 0 W/m 5,8 C 8,3 C 4,0 km/h (1 Bft) 0,00 %
12.11.2014 22:45 8,6 C 84 % 1004,5 hPa 0,0 l/m 0,4 km/h (0 Bft) W-NW 297 0 min 0,000 mm 0,0 UV-I 0 W/m 6,1 C 8,6 C 4,0 km/h (1 Bft) 0,00 %
12.11.2014 23:00 8,7 C 84 % 1004,6 hPa 0,0 l/m 5,8 km/h (2 Bft) S-SW 196 0 min 0,000 mm 0,0 UV-I 0 W/m 6,2 C 8,7 C 11,9 km/h (2 Bft) 0,00 %
12.11.2014 23:15 8,7 C 84 % 1004,7 hPa 0,0 l/m 3,2 km/h (1 Bft) SW 233 0 min 0,000 mm 0,0 UV-I 0 W/m 6,2 C 8,7 C 7,9 km/h (2 Bft) 0,00 %
12.11.2014 23:30 8,8 C 84 % 1004,9 hPa 0,0 l/m 2,9 km/h (1 Bft) N-NW 344 0 min 0,000 mm 0,0 UV-I 0 W/m 6,2 C 8,8 C 7,9 km/h (2 Bft) 0,00 %
12.11.2014 23:45 8,7 C 84 % 1005,3 hPa 0,0 l/m 0,0 km/h (0 Bft) S-SW 206 0 min 0,000 mm 0,0 UV-I 0 W/m 6,2 C 8,7 C 0,0 km/h (0 Bft) 0,00 %
_ Min-Zeit 07:15 14:00 14:00 - 00:00 - - - - - - 07:15 07:15 00:00 00:00
Minimum _ 4,4 C 58 % 999,0 hPa - 0,0 km/h (0 Bft) - - - - - - 2,3 C 4,4 C 0,0 km/h (0 Bft) 0,00 %
_ Max-Zeit 14:15 00:30 23:45 03:30 10:45 - - 00:00 00:00 10:15 11:30 16:15 14:15 10:45 00:00
Maximum _ 16,7 C 86 % 1005,3 hPa 0,3 l/m 10,8 km/h
O (2 Bft)
- - 0 min 0,000 mm 2,0 UV-I 166 W/m 9,3 C 16,7 C 15,8 km/h
O (3 Bft)
0,00 %
Durchschnitt _ 9,8 C 79 % 1001,8 hPa #0,3 l/m 0,5 km/h (0 Bft) O-SO - #0 min. #0,000 mm 1,3 UV-I 70 W/m 6,1 C 9,7 C 1,0 km/h (0 Bft) 0,00 %